Location: Mont Hereford
(45.0826°N, 71.6017°W)
Time: 03:10:18
(UTC-05:00)

Tiangong 2 - Visible Passes

Search period start: 22 January 2018 00:00
Search period end: 01 February 2018 00:00
Orbit: 384 x 390 km, 42.8° (Epoch: 21 January)

Date Brightness Start Highest point End Pass type
(mag) Time Alt. Az. Time Alt. Az. Time Alt. Az.
22 Jan 4.2 04:33:17 15° ESE 04:33:17 15° ESE 04:34:01 10° E visible
22 Jan 1.5 06:05:33 18° WSW 06:07:44 56° S 06:10:53 10° E visible
23 Jan 2.1 05:09:37 43° SE 05:09:37 43° SE 05:12:11 10° E visible
24 Jan 1.5 05:45:53 33° WSW 05:47:01 56° S 05:50:09 10° ESE visible
25 Jan 3.3 04:49:52 26° ESE 04:49:52 26° ESE 04:51:27 10° E visible
25 Jan 2.0 06:22:08 11° W 06:24:54 39° SSW 06:27:55 10° SE visible
26 Jan 1.5 05:26:06 48° SSW 05:26:14 49° S 05:29:20 10° ESE visible
27 Jan 4.3 04:30:04 14° ESE 04:30:04 14° ESE 04:30:40 10° ESE visible
27 Jan 2.5 06:02:20 17° WSW 06:04:03 28° SSW 06:06:51 10° SE visible
28 Jan 2.6 05:06:19 30° SSE 05:06:19 30° SSE 05:08:24 10° SE visible
29 Jan 2.9 05:42:37 18° SW 05:43:07 19° SSW 05:45:27 10° SSE visible
30 Jan 3.9 04:46:41 14° SSE 04:46:41 14° SSE 04:47:16 10° SE visible
31 Jan 3.8 05:23:06 11° SSW 05:23:06 11° SSW 05:23:22 10° S visible
